Location: Unspecified
(58.9933°N, 5.6375°E)
Time: 09:30:14
(UTC+02:00)

Cosmos 2058 - Visible Passes

Search period start: 01 September 2014 00:00
Search period end: 11 September 2014 00:00
Orbit: 570 x 595 km, 82.5° (Epoch: 31 August)

Date Brightness Start Highest point End Pass type
(mag) Time Alt. Az. Time Alt. Az. Time Alt. Az.
01 Sep 3.0 00:09:15 10° NNW 00:13:23 67° W 00:14:14 51° SSW visible
01 Sep 5.4 01:48:13 10° WNW 01:49:41 12° WNW 01:50:37 11° W visible
01 Sep 4.2 22:38:11 10° N 22:41:47 27° ENE 22:43:35 20° ESE visible
02 Sep 3.4 00:15:07 10° NNW 00:19:09 51° W 00:19:58 43° SW visible
02 Sep 3.9 22:43:53 10° N 22:47:42 34° ENE 22:49:20 25° ESE visible
03 Sep 3.8 00:21:01 10° NNW 00:24:54 39° W 00:25:43 35° WSW visible
03 Sep 5.3 21:14:54 10° NE 21:15:19 10° NE 21:15:43 10° NE visible
03 Sep 3.5 22:49:37 10° N 22:53:36 43° ENE 22:55:05 30° ESE visible
04 Sep 4.2 00:26:57 10° NNW 00:30:37 31° W 00:31:28 28° WSW visible
04 Sep 5.1 21:19:36 10° NNE 21:21:21 12° NE 21:23:05 10° ENE visible
04 Sep 3.1 22:55:22 10° N 22:59:28 54° ENE 23:00:51 36° SE visible
05 Sep 4.6 00:32:56 10° NNW 00:36:18 25° W 00:37:14 22° WSW visible
05 Sep 4.9 21:24:58 10° NNE 21:27:22 15° NE 21:29:46 10° E visible
05 Sep 2.9 23:01:08 10° N 23:05:18 71° ENE 23:06:38 41° SE visible
06 Sep 4.9 00:38:59 10° NW 00:41:58 20° W 00:43:01 18° WSW visible
06 Sep 4.7 21:30:29 10° NNE 21:33:21 18° NE 21:36:01 11° E visible
06 Sep 2.8 23:06:56 10° NNW 23:11:06 90° WSW 23:12:24 43° SSE visible
07 Sep 5.2 00:45:09 10° NW 00:47:36 16° W 00:48:48 14° WSW visible
07 Sep 4.4 21:36:04 10° N 21:39:19 22° ENE 21:41:49 13° ESE visible
07 Sep 3.0 23:12:45 10° NNW 23:16:53 70° W 23:18:12 41° S visible
08 Sep 5.5 00:51:33 10° NW 00:53:13 12° W 00:54:35 11° W visible
08 Sep 4.1 21:41:42 10° N 21:45:15 26° ENE 21:47:37 16° ESE visible
08 Sep 3.4 23:18:36 10° NNW 23:22:39 54° W 23:24:00 36° SSW visible
09 Sep 3.8 21:47:23 10° N 21:51:09 33° ENE 21:53:26 19° ESE visible
09 Sep 3.9 23:24:28 10° NNW 23:28:23 41° W 23:29:49 30° SW visible
10 Sep 3.5 21:53:05 10° N 21:57:02 41° ENE 21:59:16 22° SE visible
10 Sep 4.3 23:30:22 10° NNW 23:34:05 32° W 23:35:39 24° SW visible
